User: anonymous   Login
Location: Caltech
(34.1382°N, 118.1253°W)
Time: 13:24:18
(UTC-08:00)
Language:

Cosmos 1125 Rocket - Orbit

View from above orbital plane
View from above orbital plane
View from above satellite
View from above satellite

Ground track
Ground track

The orbit data is extracted from the following two-line orbital elements,

1 11511U 79078B   16043.82720490 +.00000138 +00000-0 +55789-4 0  9996
2 11511 074.0375 136.5298 0014872 143.9611 216.2548 14.36689780907936
Epoch (UTC): 12 February 2016 19:51:10
Eccentricity: 0.0014872
inclination: 74.0375°
perigee height: 759 km
apogee height: 780 km
right ascension of ascending node: 136.5298°
argument of perigee: 143.9611°
revolutions per day: 14.36689780
mean anomaly at epoch: 216.2548°
orbit number at epoch: 90793

The dashed part of the orbit path shows where the satellite is in the earth's shadow,  

DLR